TimeMDT,TemperatureF,Dew PointF,Humidity,Sea Level PressureIn,VisibilityMPH,Wind Direction,Wind SpeedMPH,Gust SpeedMPH,PrecipitationIn,Events,Conditions,WindDirDegrees,DateUTC
12:04 AM,38.5,32.9,80,30.24,10.0,NNW,3.5,-,N/A,,Clear,340,2012-10-12 06:04:00
12:25 AM,37.8,32.5,81,30.23,10.0,North,4.6,-,N/A,,Clear,350,2012-10-12 06:25:00
12:45 AM,38.5,33.3,81,30.23,10.0,Calm,Calm,-,N/A,,Clear,0,2012-10-12 06:45:00
1:04 AM,39.2,33.8,81,30.22,10.0,NW,5.8,-,N/A,,Clear,320,2012-10-12 07:04:00
1:24 AM,39.4,33.4,79,30.22,10.0,NNW,4.6,-,N/A,,Clear,330,2012-10-12 07:24:00
2:05 AM,38.3,33.1,81,30.20,10.0,North,5.8,-,N/A,,Clear,360,2012-10-12 08:05:00
2:25 AM,37.8,32.9,83,30.20,10.0,NW,4.6,-,N/A,,Clear,320,2012-10-12 08:25:00
2:45 AM,37.4,32.5,83,30.19,10.0,NNW,3.5,-,N/A,,Clear,330,2012-10-12 08:45:00
3:05 AM,36.5,32.0,84,30.18,10.0,NW,3.5,-,N/A,,Clear,320,2012-10-12 09:05:00
3:26 AM,36.0,32.0,86,30.16,10.0,Calm,Calm,-,N/A,,Clear,0,2012-10-12 09:26:00
3:45 AM,36.7,32.4,84,30.16,10.0,NNW,5.8,-,N/A,,Clear,330,2012-10-12 09:45:00
4:05 AM,36.7,32.4,84,30.16,10.0,NNW,3.5,-,N/A,,Clear,330,2012-10-12 10:05:00
4:54 AM,34.3,32.0,91,30.15,10.0,NNW,3.5,-,N/A,,Clear,330,2012-10-12 10:54:00
5:14 AM,33.8,31.8,92,30.15,10.0,NNW,3.5,-,N/A,,Clear,340,2012-10-12 11:14:00
5:26 AM,33.1,31.1,92,30.15,10.0,NNW,3.5,-,N/A,,Clear,330,2012-10-12 11:26:00
5:46 AM,33.1,31.5,94,30.16,10.0,Calm,Calm,-,N/A,,Clear,0,2012-10-12 11:46:00
6:04 AM,32.0,30.2,93,30.15,10.0,Calm,Calm,-,N/A,,Clear,0,2012-10-12 12:04:00
6:25 AM,31.6,29.8,93,30.15,10.0,Calm,Calm,-,N/A,,Clear,0,2012-10-12 12:25:00
6:45 AM,32.0,30.0,92,30.15,10.0,Calm,Calm,-,N/A,,Clear,0,2012-10-12 12:45:00
7:05 AM,31.3,29.3,92,30.15,10.0,Calm,Calm,-,N/A,,Clear,0,2012-10-12 13:05:00
7:26 AM,31.3,30.0,95,30.14,10.0,Calm,Calm,-,N/A,,Clear,0,2012-10-12 13:26:00
8:14 AM,36.3,32.4,86,30.15,10.0,Calm,Calm,-,N/A,,Clear,0,2012-10-12 14:14:00
8:34 AM,37.4,32.0,81,30.14,10.0,NNW,3.5,-,N/A,,Clear,340,2012-10-12 14:34:00
8:54 AM,38.8,32.2,77,30.14,10.0,North,3.5,-,N/A,,Clear,350,2012-10-12 14:54:00
9:14 AM,39.9,32.2,74,30.13,10.0,NNE,3.5,-,N/A,,Clear,20,2012-10-12 15:14:00
9:34 AM,42.3,32.5,68,30.12,10.0,Calm,Calm,-,N/A,,Clear,0,2012-10-12 15:34:00
9:54 AM,42.8,32.5,67,30.12,10.0,Calm,Calm,-,N/A,,Clear,0,2012-10-12 15:54:00
10:14 AM,43.7,32.7,65,30.10,10.0,Calm,Calm,-,N/A,,Clear,0,2012-10-12 16:14:00
10:34 AM,45.0,32.9,63,30.08,10.0,Calm,Calm,-,N/A,,Clear,0,2012-10-12 16:34:00
10:54 AM,46.6,32.7,59,30.08,10.0,Calm,Calm,-,N/A,,Clear,0,2012-10-12 16:54:00
11:14 AM,47.1,32.5,57,30.07,10.0,Calm,Calm,-,N/A,,Clear,0,2012-10-12 17:14:00
11:34 AM,47.7,32.9,57,30.07,10.0,Calm,Calm,-,N/A,,Clear,0,2012-10-12 17:34:00
11:54 AM,48.2,32.9,55,30.07,10.0,Calm,Calm,-,N/A,,Clear,0,2012-10-12 17:54:00
12:34 PM,48.7,32.9,54,30.06,10.0,SE,4.6,-,N/A,,Clear,140,2012-10-12 18:34:00
12:54 PM,49.1,33.4,55,30.07,10.0,South,5.8,-,N/A,,Mostly Cloudy,180,2012-10-12 18:54:00
1:14 PM,49.6,34.7,56,30.05,10.0,SSE,4.6,-,N/A,Rain,Light Rain,150,2012-10-12 19:14:00
1:34 PM,49.8,35.4,58,30.03,10.0,Calm,Calm,-,N/A,,Overcast,0,2012-10-12 19:34:00
1:54 PM,50.5,35.4,56,30.00,10.0,NNW,3.5,-,N/A,,Scattered Clouds,330,2012-10-12 19:54:00
2:14 PM,54.1,35.2,49,29.97,10.0,NW,3.5,-,N/A,,Clear,320,2012-10-12 20:14:00
2:34 PM,55.2,35.2,47,29.96,10.0,West,3.5,-,N/A,,Clear,270,2012-10-12 20:34:00
2:54 PM,57.2,35.2,44,29.93,10.0,NNE,3.5,-,N/A,,Clear,30,2012-10-12 20:54:00
3:14 PM,58.3,35.8,43,29.92,10.0,Calm,Calm,-,N/A,Thunderstorm,Clear,0,2012-10-12 21:14:00
3:34 PM,59.2,36.0,42,29.90,10.0,NE,4.6,-,N/A,,Clear,40,2012-10-12 21:34:00
4:14 PM,58.5,36.7,44,29.90,10.0,North,5.8,-,N/A,,Clear,350,2012-10-12 22:14:00
4:54 PM,56.1,36.9,48,29.93,10.0,WNW,3.5,-,N/A,Thunderstorm,Scattered Clouds,290,2012-10-12 22:54:00
5:14 PM,54.0,42.4,65,29.93,7.0,West,6.9,-,N/A,Rain,Light Rain,280,2012-10-12 23:14:00
5:34 PM,50.9,45.5,82,29.89,10.0,NE,4.6,-,N/A,Rain,Light Rain,50,2012-10-12 23:34:00
5:54 PM,52.2,47.1,83,29.89,10.0,ESE,11.5,-,N/A,,Mostly Cloudy,110,2012-10-12 23:54:00
6:14 PM,52.9,43.3,70,29.90,10.0,North,10.4,-,N/A,,Scattered Clouds,360,2012-10-13 00:14:00
6:34 PM,52.0,42.6,70,29.90,10.0,NNE,6.9,-,N/A,,Clear,20,2012-10-13 00:34:00
6:54 PM,51.6,41.4,68,29.91,10.0,SE,4.6,-,N/A,,Clear,130,2012-10-13 00:54:00
7:14 PM,51.3,41.0,68,29.92,10.0,Calm,Calm,-,N/A,,Clear,0,2012-10-13 01:14:00
7:34 PM,49.3,42.8,78,29.92,10.0,Calm,Calm,-,N/A,,Clear,0,2012-10-13 01:34:00
8:14 PM,47.3,42.8,84,29.92,10.0,Calm,Calm,-,N/A,,Clear,0,2012-10-13 02:14:00
8:34 PM,47.5,43.0,84,29.93,10.0,Calm,Calm,-,N/A,,Clear,0,2012-10-13 02:34:00
8:54 PM,47.5,42.8,84,29.92,10.0,Calm,Calm,-,N/A,,Clear,0,2012-10-13 02:54:00
9:14 PM,47.8,42.6,82,29.93,10.0,Calm,Calm,-,N/A,,Clear,0,2012-10-13 03:14:00
9:54 PM,46.4,43.3,89,29.94,10.0,Calm,Calm,-,N/A,,Mostly Cloudy,0,2012-10-13 03:54:00
10:14 PM,46.9,43.7,88,29.96,10.0,SW,3.5,-,N/A,Thunderstorm,Overcast,230,2012-10-13 04:14:00
10:34 PM,46.9,43.7,88,29.92,5.0,SW,3.5,-,N/A,Rain,Light Rain,230,2012-10-13 04:34:00
10:54 PM,47.3,43.9,88,29.93,10.0,South,9.2,-,N/A,Thunderstorm,Mostly Cloudy,190,2012-10-13 04:54:00
11:14 PM,48.2,45.3,90,29.92,5.0,South,3.5,-,N/A,Rain-Thunderstorm,Rain,170,2012-10-13 05:14:00